Weather History for Bluefield, WV

Change the Weather History Date:

Sunday, February 10, 2013

  Actual Average Record
Temperature  
Mean Temperature 43 °F 36 °F  
Max Temperature 54 °F 45 °F 67 °F (2009)
Min Temperature 31 °F 28 °F 0 °F (1979)
Degree Days  
Heating Degree Days 22 29  
Month to date heating degree days 312 294  
Since 1 July heating degree days 2888 3014  
Cooling Degree Days 0 0  
Month to date cooling degree days 0 0  
Year to date cooling degree days 1 0  
Moisture  
Dew Point 18 °F    
Average Humidity 45    
Maximum Humidity 70    
Minimum Humidity 20    
Precipitation  
Precipitation 0.11 in 0.09 in 1.12 in (1990)
Month to date precipitation 0.58 0.95  
Year to date precipitation 6.58 3.85  
Snow  
Snow 0.00 in - - ()
Month to date snowfall 6.0  
Since 1 July snowfall 34.5  
Snow Depth 0.00 in    
Sea Level Pressure  
Sea Level Pressure 30.19 in    
Wind  
Wind Speed 11 mph (SSE)    
Max Wind Speed 23 mph    
Max Gust Speed 41 mph    
Visibility 10 miles    
Events Rain    
T = Trace of Precipitation, MM = Missing Value Source: NWS Daily Summary

Daily Weather History Graph

Daily Weather History Graph

Search for Another Location

Airport:

Trip Planner

Search our weather history database for the weather conditions in past years. The results will help you decide how hot, cold, wet, or windy it might be!

Date:

Astronomy

Feb. 10, 2013 Rise Set
Actual Time 7:19 AM EST 5:59 PM EST
Civil Twilight 6:52 AM EST 6:26 PM EST
Nautical Twilight 6:21 AM EST 6:57 PM EST
Astronomical Twilight 5:51 AM EST 7:27 PM EST
Moon 7:09 AM EST (2/10) 6:46 PM EST (2/10)
Length of Visible Light 11h 34m
Length of Day
10h 40m
New Moon, 0% of the Moon is Illuminated
Feb 10
New Moon
Feb 17
First Quarter
Feb 25
Full
Mar 4
Last Quarter
Mar 11
New

Hourly Weather History & Observations

Time (EST) Temp. Windchill Dew Point Humidity Pressure Visibility Wind Dir Wind Speed Gust Speed Precip Events Conditions
12:52 AM 36.0 °F 33.3 °F 10.0 °F 34% 30.27 in 10.0 mi NE 3.5 mph - N/A   Clear
1:52 AM 37.9 °F 34.4 °F 10.0 °F 32% 30.25 in 10.0 mi East 4.6 mph - N/A   Clear
2:52 AM 37.9 °F 33.5 °F 12.0 °F 35% 30.26 in 10.0 mi Variable 5.8 mph - N/A   Clear
3:52 AM 39.0 °F 29.9 °F 12.0 °F 33% 30.24 in 10.0 mi SSE 17.3 mph 28.8 mph N/A   Clear
4:52 AM 39.0 °F 34.0 °F 12.0 °F 33% 30.25 in 10.0 mi Variable 6.9 mph 18.4 mph N/A   Clear
5:52 AM 39.0 °F 36.8 °F 12.0 °F 33% 30.26 in 10.0 mi Variable 3.5 mph - N/A   Clear
6:52 AM 39.0 °F 32.8 °F 12.0 °F 33% 30.28 in 10.0 mi SE 9.2 mph - N/A   Clear
7:52 AM 39.9 °F 33.9 °F 12.0 °F 32% 30.31 in 10.0 mi SSE 9.2 mph - N/A   Overcast
8:52 AM 39.9 °F 34.5 °F 12.0 °F 32% 30.31 in 10.0 mi SE 8.1 mph 20.7 mph N/A   Clear
9:52 AM 43.0 °F 36.0 °F 12.9 °F 30% 30.28 in 10.0 mi SE 13.8 mph 20.7 mph N/A   Clear
10:52 AM 45.0 °F 40.1 °F 12.9 °F 27% 30.29 in 10.0 mi SSE 9.2 mph 21.9 mph N/A   Clear
11:52 AM 48.0 °F - 12.9 °F 24% 30.26 in 10.0 mi SSE 11.5 mph 25.3 mph N/A   Clear
12:52 PM 52.0 °F - 12.9 °F 21% 30.19 in 10.0 mi SSE 10.4 mph 24.2 mph N/A   Clear
1:52 PM 52.0 °F - 12.9 °F 21% 30.16 in 10.0 mi SSE 17.3 mph 27.6 mph N/A   Mostly Cloudy
2:52 PM 54.0 °F - 14.0 °F 21% 30.13 in 10.0 mi SSE 8.1 mph 18.4 mph N/A   Scattered Clouds
3:52 PM 51.1 °F - 14.0 °F 23% 30.12 in 10.0 mi SSE 13.8 mph 32.2 mph N/A   Partly Cloudy
4:52 PM 48.0 °F - 15.1 °F 27% 30.11 in 10.0 mi SSE 15.0 mph 25.3 mph N/A   Mostly Cloudy
5:52 PM 46.9 °F - 12.9 °F 25% 30.14 in 10.0 mi South 10.4 mph 20.7 mph N/A   Mostly Cloudy
6:52 PM 46.0 °F 40.6 °F 18.0 °F 33% 30.16 in 10.0 mi South 11.5 mph 24.2 mph N/A   Overcast
7:52 PM 39.9 °F 31.8 °F 30.0 °F 68% 30.16 in 6.0 mi South 15.0 mph 31.1 mph 0.06 in Rain Rain
8:52 PM 39.0 °F 29.6 °F 30.9 °F 73% 30.12 in 10.0 mi SSE 18.4 mph 31.1 mph 0.05 in Rain Light Rain
9:52 PM 39.9 °F 31.8 °F 32.0 °F 73% 30.11 in 10.0 mi South 15.0 mph 25.3 mph 0.00 in   Overcast
10:10 PM 39.2 °F 32.5 °F 32.0 °F 75% 30.08 in 10.0 mi South 10.4 mph 23.0 mph N/A   Overcast
10:52 PM 42.1 °F 34.2 °F 34.0 °F 73% 30.06 in 10.0 mi South 16.1 mph 41.4 mph N/A   Mostly Cloudy
11:11 PM 42.8 °F 36.2 °F 33.8 °F 70% 30.05 in 10.0 mi South 12.7 mph 27.6 mph N/A   Overcast
11:52 PM 44.1 °F 37.4 °F 37.0 °F 76% 30.02 in 10.0 mi South 13.8 mph 27.6 mph N/A   Mostly Cloudy